SFR502 FAOR-FACT

Flight info

Callsign SFR502
Flight time N/A
Altitude 36000
Route RAGUL3A RAGUL UQ10 DUMDO UZ26 ERDAS ERDAS1C
Aircraft B738/M-SDE2E3FGHIRWXY/LB1

Departure

Time 2026-05-04 08:48
Airport O.R. Tambo International Airport (FAOR)

Arrival

Time N/A
Airport Cape Town International Airport (FACT)
Time Latitude Longitude Altitude Speed Heading
2026-05-04 08:13 -26.13685 28.23107 5546 ft 0 kts
2026-05-04 08:37 -26.13688 28.23106 5546 ft 2 kts
2026-05-04 08:38 -26.13713 28.23101 5546 ft 4 kts 22°
2026-05-04 08:38 -26.13734 28.23087 5547 ft 4 kts 54°
2026-05-04 08:38 -26.13741 28.23065 5549 ft 1 kts 96°
2026-05-04 08:40 -26.13741 28.23060 5546 ft 0 kts 96°
2026-05-04 08:43 -26.13742 28.23068 5548 ft 3 kts 96°
2026-05-04 08:44 -26.13746 28.23113 5548 ft 9 kts 96°
2026-05-04 08:44 -26.13753 28.23188 5546 ft 10 kts 97°
2026-05-04 08:46 -26.13938 28.23627 5563 ft 11 kts 100°
2026-05-04 08:46 -26.13925 28.23653 5562 ft 0 kts 26°
2026-05-04 08:46 -26.13924 28.23653 5561 ft 2 kts 24°
2026-05-04 08:47 -26.13794 28.23694 5559 ft 51 kts 15°
2026-05-04 08:47 -26.13237 28.23867 5546 ft 116 kts 15°
2026-05-04 08:47 -26.12272 28.24172 5536 ft 170 kts 16°
2026-05-04 08:47 -26.11106 28.24624 5948 ft 184 kts 15°
2026-05-04 08:48 -26.09876 28.25142 6585 ft 194 kts 18°
2026-05-04 08:48 -26.08587 28.25626 7287 ft 195 kts 12°
2026-05-04 08:48 -26.07228 28.26019 7725 ft 209 kts 10°
2026-05-04 08:48 -26.05744 28.26383 8001 ft 232 kts
2026-05-04 08:49 -26.04107 28.26093 8023 ft 252 kts 325°
2026-05-04 08:50 -26.07127 28.15484 9430 ft 280 kts 235°
2026-05-04 08:50 -26.08314 28.13751 10346 ft 282 kts 235°
2026-05-04 08:51 -26.09506 28.11982 10868 ft 295 kts 235°
2026-05-04 08:51 -26.10783 28.10062 11044 ft 321 kts 235°
2026-05-04 08:51 -26.12150 28.07995 11352 ft 340 kts 235°
2026-05-04 08:51 -26.13562 28.05855 11985 ft 346 kts 236°
2026-05-04 08:52 -26.14997 28.03676 12627 ft 352 kts 236°
2026-05-04 08:52 -26.16457 28.01450 13249 ft 358 kts 235°
2026-05-04 08:52 -26.17937 27.99191 13911 ft 364 kts 237°
2026-05-04 08:52 -26.19441 27.96888 14475 ft 369 kts 237°
2026-05-04 08:53 -26.20958 27.94565 15109 ft 372 kts 237°
2026-05-04 08:54 -26.31914 27.77755 19156 ft 394 kts 238°
2026-05-04 08:55 -26.33525 27.75280 19754 ft 394 kts 238°
2026-05-04 08:55 -26.35134 27.72805 20349 ft 394 kts 238°
2026-05-04 08:55 -26.36742 27.70330 20897 ft 395 kts 238°
2026-05-04 08:55 -26.38353 27.67847 21458 ft 395 kts 238°
2026-05-04 08:57 -26.50909 27.51269 24757 ft 412 kts 227°
2026-05-04 09:01 -26.81186 27.18921 29090 ft 445 kts 229°
2026-05-04 09:01 -26.83430 27.16505 29358 ft 447 kts 229°
2026-05-04 09:01 -26.85681 27.14079 29592 ft 450 kts 229°
2026-05-04 09:01 -26.87940 27.11644 29837 ft 452 kts 229°
2026-05-04 09:02 -26.90205 27.09201 30147 ft 452 kts 229°
2026-05-04 09:02 -26.92470 27.06759 30503 ft 450 kts 229°
2026-05-04 09:02 -26.94722 27.04330 30897 ft 447 kts 229°
2026-05-04 09:02 -26.96919 27.01947 31343 ft 443 kts 229°
2026-05-04 09:03 -26.99112 26.99545 31758 ft 439 kts 230°
2026-05-04 09:03 -27.01286 26.97152 32131 ft 437 kts 230°
2026-05-04 09:03 -27.03451 26.94762 32511 ft 435 kts 230°
2026-05-04 09:03 -27.05605 26.92385 32918 ft 432 kts 230°
2026-05-04 09:04 -27.07746 26.90021 33338 ft 429 kts 230°
2026-05-04 09:04 -27.09867 26.87681 33737 ft 427 kts 230°
2026-05-04 09:04 -27.11985 26.85343 34017 ft 427 kts 230°
2026-05-04 09:04 -27.14107 26.82997 34223 ft 429 kts 230°
2026-05-04 09:05 -27.16230 26.80650 34512 ft 427 kts 230°
2026-05-04 09:05 -27.18347 26.78311 34869 ft 424 kts 231°
2026-05-04 09:05 -27.20420 26.76021 35197 ft 422 kts 231°
2026-05-04 09:05 -27.22536 26.73681 35463 ft 421 kts 231°
2026-05-04 09:06 -27.24592 26.71404 35700 ft 420 kts 231°
2026-05-04 09:07 -27.39183 26.55217 36201 ft 417 kts 232°
2026-05-04 09:08 -27.41245 26.52925 36203 ft 417 kts 232°
2026-05-04 09:08 -27.45371 26.48331 36207 ft 418 kts 232°
2026-05-04 09:09 -27.49482 26.43749 36201 ft 419 kts 232°
2026-05-04 09:09 -27.53638 26.39113 36201 ft 421 kts 232°
2026-05-04 09:10 -27.57806 26.34458 36196 ft 422 kts 232°
2026-05-04 09:10 -27.61983 26.29790 36196 ft 423 kts 232°
2026-05-04 09:11 -27.66167 26.25108 36201 ft 424 kts 232°
2026-05-04 09:11 -27.70363 26.20407 36190 ft 425 kts 232°
2026-05-04 09:12 -27.74567 26.15691 36187 ft 426 kts 232°
2026-05-04 09:14 -27.91309 25.96860 36182 ft 424 kts 232°
2026-05-04 09:14 -27.95480 25.92153 36194 ft 423 kts 233°
2026-05-04 09:15 -27.98945 25.88239 36174 ft 423 kts 233°
2026-05-04 09:15 -28.03102 25.83540 36176 ft 422 kts 233°
2026-05-04 09:17 -28.21717 25.62406 36183 ft 421 kts 233°
2026-05-04 09:18 -28.25821 25.57731 36169 ft 421 kts 233°
2026-05-04 09:18 -28.29955 25.53018 36161 ft 421 kts 233°
2026-05-04 09:19 -28.34083 25.48305 36157 ft 421 kts 233°
2026-05-04 09:19 -28.38217 25.43581 36157 ft 420 kts 233°
2026-05-04 09:20 -28.42336 25.38867 36149 ft 420 kts 233°
2026-05-04 09:20 -28.46455 25.34148 36149 ft 420 kts 233°
2026-05-04 09:21 -28.50568 25.29428 36146 ft 420 kts 234°
2026-05-04 09:21 -28.54660 25.24729 36141 ft 420 kts 234°
2026-05-04 09:22 -28.58774 25.19999 36130 ft 420 kts 234°
2026-05-04 09:22 -28.62884 25.15269 36134 ft 420 kts 234°
2026-05-04 09:23 -28.66994 25.10531 36130 ft 420 kts 234°
2026-05-04 09:23 -28.71095 25.05798 36135 ft 420 kts 234°
2026-05-04 09:25 -28.87457 24.86855 36122 ft 419 kts 235°
2026-05-04 09:26 -28.91545 24.82109 36114 ft 419 kts 235°
2026-05-04 09:26 -28.95632 24.77356 36114 ft 419 kts 235°
2026-05-04 09:27 -28.99713 24.72607 36110 ft 419 kts 235°
2026-05-04 09:27 -29.03791 24.67854 36109 ft 418 kts 235°
2026-05-04 09:28 -29.07833 24.63138 36103 ft 418 kts 235°
2026-05-04 09:28 -29.11904 24.58382 36106 ft 418 kts 235°
2026-05-04 09:29 -29.15967 24.53630 36138 ft 418 kts 235°
2026-05-04 09:29 -29.20035 24.48864 36113 ft 418 kts 236°
2026-05-04 09:30 -29.24111 24.44085 36106 ft 419 kts 236°
2026-05-04 09:30 -29.28187 24.39301 36103 ft 419 kts 236°
2026-05-04 09:31 -29.32236 24.34542 36104 ft 419 kts 236°
2026-05-04 09:31 -29.36312 24.29746 36093 ft 419 kts 236°
2026-05-04 09:32 -29.40378 24.24957 36091 ft 418 kts 236°
2026-05-04 09:34 -29.56535 24.05864 36127 ft 417 kts 237°
2026-05-04 09:34 -29.60573 24.01077 36096 ft 416 kts 237°
2026-05-04 09:35 -29.64605 23.96292 36087 ft 416 kts 237°
2026-05-04 09:35 -29.68632 23.91508 36086 ft 415 kts 237°
2026-05-04 09:37 -29.84608 23.72464 36106 ft 414 kts 238°
2026-05-04 09:38 -29.88600 23.67689 36077 ft 415 kts 238°
2026-05-04 09:38 -29.92598 23.62904 36075 ft 414 kts 238°
2026-05-04 09:39 -29.96593 23.58117 36053 ft 414 kts 238°
2026-05-04 09:39 -30.00582 23.53332 36061 ft 413 kts 238°
2026-05-04 09:40 -30.04564 23.48547 36045 ft 413 kts 238°
2026-05-04 09:40 -30.08547 23.43755 36045 ft 413 kts 238°
2026-05-04 09:42 -30.24513 23.24485 36033 ft 417 kts 239°
2026-05-04 09:43 -30.28541 23.19609 36010 ft 417 kts 239°
2026-05-04 09:43 -30.32522 23.14785 36021 ft 417 kts 239°
2026-05-04 09:44 -30.36533 23.09918 36040 ft 417 kts 239°
2026-05-04 09:46 -30.52548 22.90421 36027 ft 418 kts 240°
2026-05-04 09:46 -30.56552 22.85529 35998 ft 418 kts 240°
2026-05-04 09:47 -30.60558 22.80630 35988 ft 418 kts 240°
2026-05-04 09:49 -30.76597 22.60950 35988 ft 421 kts 240°
2026-05-04 09:51 -30.90671 22.43596 36013 ft 423 kts 241°
2026-05-04 09:51 -30.94709 22.38592 35977 ft 423 kts 241°
2026-05-04 09:52 -30.98723 22.33606 35984 ft 423 kts 241°
2026-05-04 09:52 -31.02746 22.28602 35978 ft 422 kts 241°
2026-05-04 09:53 -31.06771 22.23589 35973 ft 422 kts 241°
2026-05-04 09:53 -31.10755 22.18620 35976 ft 421 kts 241°
2026-05-04 09:54 -31.14763 22.13615 35974 ft 421 kts 241°
2026-05-04 09:54 -31.18764 22.08611 35979 ft 421 kts 241°
2026-05-04 09:55 -31.22762 22.03603 35983 ft 421 kts 241°
2026-05-04 09:55 -31.26728 21.98632 35974 ft 420 kts 241°
2026-05-04 09:56 -31.30708 21.93637 35977 ft 419 kts 241°
2026-05-04 09:56 -31.34675 21.88650 35977 ft 419 kts 241°
2026-05-04 09:57 -31.38638 21.83661 35979 ft 418 kts 242°
2026-05-04 09:57 -31.42601 21.78665 36007 ft 418 kts 242°
2026-05-04 09:58 -31.46561 21.73664 35989 ft 419 kts 242°
2026-05-04 09:58 -31.50527 21.68651 35977 ft 420 kts 242°
2026-05-04 10:00 -31.66408 21.48512 35985 ft 422 kts 242°
2026-05-04 10:04 -31.93610 21.13760 36019 ft 424 kts 241°
2026-05-04 10:04 -31.97603 21.08631 35990 ft 425 kts 241°
2026-05-04 10:05 -32.02250 21.02656 35981 ft 425 kts 241°
2026-05-04 10:05 -32.05564 20.98387 35997 ft 425 kts 241°
2026-05-04 10:06 -32.09556 20.93239 35983 ft 425 kts 241°
2026-05-04 10:06 -32.13540 20.88094 35972 ft 424 kts 241°
2026-05-04 10:08 -32.27415 20.70116 36001 ft 424 kts 242°
2026-05-04 10:08 -32.31384 20.64956 35999 ft 424 kts 242°
2026-05-04 10:09 -32.35355 20.59788 36006 ft 425 kts 242°
2026-05-04 10:09 -32.39331 20.54608 36012 ft 425 kts 242°
2026-05-04 10:10 -32.43303 20.49423 36007 ft 425 kts 242°
2026-05-04 10:10 -32.47272 20.44236 36045 ft 425 kts 242°
2026-05-04 10:11 -32.51244 20.39036 36021 ft 425 kts 242°
2026-05-04 10:11 -32.55188 20.33866 36018 ft 424 kts 242°
2026-05-04 10:12 -32.59146 20.28675 36005 ft 423 kts 242°
2026-05-04 10:12 -32.63089 20.23493 35996 ft 421 kts 242°
2026-05-04 10:13 -32.65055 20.20906 35859 ft 422 kts 242°
2026-05-04 10:13 -32.66987 20.18365 35582 ft 416 kts 242°
2026-05-04 10:13 -32.68917 20.15830 35182 ft 412 kts 242°
2026-05-04 10:13 -32.70835 20.13306 34859 ft 409 kts 243°
2026-05-04 10:14 -32.72732 20.10801 34422 ft 406 kts 243°
2026-05-04 10:14 -32.74612 20.08316 34015 ft 404 kts 243°
2026-05-04 10:16 -32.87397 19.91386 31260 ft 382 kts 243°
2026-05-04 10:16 -32.89168 19.89033 30887 ft 380 kts 243°
2026-05-04 10:16 -32.90902 19.86727 30529 ft 378 kts 243°
2026-05-04 10:16 -32.92648 19.84404 30164 ft 376 kts 243°
2026-05-04 10:17 -32.94387 19.82089 29743 ft 374 kts 243°
2026-05-04 10:17 -32.96115 19.79787 29336 ft 372 kts 243°
2026-05-04 10:19 -33.08191 19.64390 26743 ft 360 kts 239°
2026-05-04 10:19 -33.09937 19.62306 26371 ft 358 kts 239°
2026-05-04 10:19 -33.11686 19.60206 26017 ft 356 kts 240°
2026-05-04 10:19 -33.13424 19.58109 25656 ft 354 kts 240°
2026-05-04 10:20 -33.15147 19.56025 25298 ft 351 kts 240°
2026-05-04 10:20 -33.16859 19.53949 24981 ft 349 kts 240°
2026-05-04 10:20 -33.18561 19.51878 24598 ft 349 kts 240°
2026-05-04 10:20 -33.20266 19.49804 24230 ft 349 kts 240°
2026-05-04 10:21 -33.21967 19.47737 23887 ft 348 kts 240°
2026-05-04 10:21 -33.23663 19.45673 23556 ft 348 kts 240°
2026-05-04 10:21 -33.25348 19.43598 23115 ft 345 kts 242°
2026-05-04 10:21 -33.26868 19.41423 22702 ft 337 kts 246°
2026-05-04 10:22 -33.29672 19.37015 21970 ft 329 kts 248°
2026-05-04 10:22 -33.31047 19.34838 21647 ft 327 kts 247°
2026-05-04 10:22 -33.32417 19.32683 21282 ft 325 kts 247°
2026-05-04 10:23 -33.33769 19.30571 20973 ft 323 kts 247°
2026-05-04 10:23 -33.35134 19.28442 20620 ft 322 kts 246°